TimeCST,TemperatureF,Dew PointF,Humidity,Sea Level PressureIn,VisibilityMPH,Wind Direction,Wind SpeedMPH,Gust SpeedMPH,PrecipitationIn,Events,Conditions,WindDirDegrees,DateUTC
12:15 AM,4.8,-0.0,80,30.27,10.0,Calm,Calm,-,N/A,,Clear,0,2014-03-05 06:15:00
12:35 AM,5.0,0.3,81,30.28,10.0,NE,3.5,-,N/A,,Clear,50,2014-03-05 06:35:00
12:55 AM,4.3,-0.2,82,30.28,10.0,Calm,Calm,-,N/A,,Clear,0,2014-03-05 06:55:00
1:15 AM,5.0,0.5,82,30.28,10.0,NE,3.5,-,N/A,,Clear,50,2014-03-05 07:15:00
1:35 AM,4.6,-0.4,80,30.29,10.0,Calm,Calm,-,N/A,,Clear,0,2014-03-05 07:35:00
1:55 AM,4.1,-0.4,82,30.30,10.0,NE,3.5,-,N/A,,Clear,50,2014-03-05 07:55:00
2:15 AM,3.7,-1.5,79,30.30,10.0,Calm,Calm,-,N/A,,Clear,0,2014-03-05 08:15:00
2:35 AM,3.0,-2.0,80,30.31,10.0,Calm,Calm,-,N/A,,Clear,0,2014-03-05 08:35:00
2:55 AM,1.8,-3.1,80,30.31,10.0,Calm,Calm,-,N/A,,Clear,0,2014-03-05 08:55:00
3:15 AM,1.4,-3.1,81,30.32,10.0,Calm,Calm,-,N/A,,Clear,0,2014-03-05 09:15:00
3:35 AM,0.5,-4.0,81,30.34,10.0,Calm,Calm,-,N/A,,Clear,0,2014-03-05 09:35:00
3:55 AM,-7.4,-11.4,83,30.34,10.0,Calm,Calm,-,N/A,,Clear,0,2014-03-05 09:55:00
4:15 AM,-6.7,-10.3,84,30.36,10.0,Calm,Calm,-,N/A,,Clear,0,2014-03-05 10:15:00
4:35 AM,-8.7,-12.6,83,30.37,10.0,Calm,Calm,-,N/A,,Clear,0,2014-03-05 10:35:00
4:55 AM,-10.5,-14.6,82,30.38,10.0,Calm,Calm,-,N/A,,Clear,0,2014-03-05 10:55:00
5:02 AM,-11.2,-16.6,77,30.38,10.0,Calm,Calm,-,N/A,,Clear,0,2014-03-05 11:02:00
5:15 AM,-10.8,-15.0,82,30.38,10.0,Calm,Calm,-,N/A,,Clear,0,2014-03-05 11:15:00
5:35 AM,-13.0,-17.3,81,30.39,10.0,Calm,Calm,-,N/A,,Clear,0,2014-03-05 11:35:00
5:55 AM,-14.3,-19.1,79,30.39,10.0,Calm,Calm,-,N/A,,Clear,0,2014-03-05 11:55:00
6:02 AM,-14.8,-18.4,84,30.39,10.0,Calm,Calm,-,N/A,,Clear,0,2014-03-05 12:02:00
6:15 AM,-14.4,-19.3,79,30.39,10.0,Calm,Calm,-,N/A,,Clear,0,2014-03-05 12:15:00
6:23 AM,-16.6,-20.2,84,30.39,10.0,Calm,Calm,-,N/A,,Clear,0,2014-03-05 12:23:00
6:35 AM,-16.6,-21.8,77,30.40,10.0,Calm,Calm,-,N/A,,Clear,0,2014-03-05 12:35:00
6:55 AM,-15.7,-20.7,78,30.41,10.0,Calm,Calm,-,N/A,,Clear,0,2014-03-05 12:55:00
7:01 AM,-16.6,-22.0,76,30.41,10.0,Calm,Calm,-,N/A,,Clear,0,2014-03-05 13:01:00
7:15 AM,-15.3,-20.4,78,30.41,10.0,Calm,Calm,-,N/A,,Clear,0,2014-03-05 13:15:00
7:35 AM,-13.2,-18.0,79,30.42,10.0,Calm,Calm,-,N/A,,Clear,0,2014-03-05 13:35:00
7:55 AM,-3.5,-7.1,85,30.42,10.0,Calm,Calm,-,N/A,,Clear,0,2014-03-05 13:55:00
8:15 AM,0.9,-3.6,81,30.43,10.0,ENE,4.6,-,N/A,,Clear,70,2014-03-05 14:15:00
8:35 AM,3.0,-1.8,80,30.43,10.0,Calm,Calm,-,N/A,,Clear,0,2014-03-05 14:35:00
8:55 AM,4.5,-2.0,75,30.43,10.0,ENE,3.5,-,N/A,,Clear,70,2014-03-05 14:55:00
9:10 AM,5.2,-2.0,72,30.43,10.0,ENE,8.1,-,N/A,,Clear,70,2014-03-05 15:10:00
9:35 AM,6.8,-1.5,69,30.44,10.0,Calm,Calm,-,N/A,,Clear,0,2014-03-05 15:35:00
9:55 AM,7.9,-1.5,66,30.44,10.0,NE,4.6,-,N/A,,Clear,50,2014-03-05 15:55:00
10:15 AM,9.1,-1.3,63,30.45,10.0,Calm,Calm,-,N/A,,Clear,0,2014-03-05 16:15:00
10:35 AM,10.8,-0.9,59,30.45,10.0,Calm,Calm,-,N/A,,Clear,0,2014-03-05 16:35:00
10:55 AM,11.3,-0.9,58,30.45,10.0,Calm,Calm,-,N/A,,Clear,0,2014-03-05 16:55:00
11:15 AM,12.9,-0.9,54,30.46,10.0,Calm,Calm,-,N/A,,Clear,0,2014-03-05 17:15:00
11:35 AM,14.2,-1.1,51,30.45,10.0,Calm,Calm,-,N/A,,Clear,0,2014-03-05 17:35:00
11:55 AM,16.5,-2.2,44,30.44,10.0,Calm,Calm,-,N/A,,Clear,0,2014-03-05 17:55:00
12:15 PM,16.9,-2.0,43,30.44,10.0,Calm,Calm,-,N/A,,Clear,0,2014-03-05 18:15:00
12:35 PM,18.3,-2.4,40,30.43,10.0,Calm,Calm,-,N/A,,Clear,0,2014-03-05 18:35:00
12:55 PM,19.0,-2.9,38,30.42,10.0,Calm,Calm,-,N/A,,Clear,0,2014-03-05 18:55:00
1:15 PM,19.2,-4.5,35,30.41,10.0,Calm,Calm,-,N/A,,Clear,0,2014-03-05 19:15:00
1:35 PM,20.1,-4.4,34,30.40,10.0,ENE,8.1,-,N/A,,Clear,70,2014-03-05 19:35:00
1:50 PM,20.5,-4.9,33,30.40,10.0,Calm,Calm,-,N/A,,Clear,0,2014-03-05 19:50:00
2:15 PM,21.4,-4.5,32,30.39,10.0,Calm,Calm,-,N/A,,Clear,0,2014-03-05 20:15:00
2:35 PM,21.4,-4.2,33,30.40,10.0,Calm,Calm,-,N/A,,Clear,0,2014-03-05 20:35:00
2:55 PM,21.2,-3.1,34,30.40,10.0,Calm,Calm,-,N/A,,Clear,0,2014-03-05 20:55:00
3:15 PM,21.6,-2.6,35,30.40,10.0,Calm,Calm,-,N/A,,Clear,0,2014-03-05 21:15:00
3:35 PM,20.7,-2.2,37,30.40,10.0,Calm,Calm,-,N/A,,Clear,0,2014-03-05 21:35:00
3:55 PM,20.3,-1.7,38,30.40,10.0,SE,5.8,-,N/A,,Clear,140,2014-03-05 21:55:00
4:15 PM,21.0,-3.3,34,30.40,10.0,SSE,3.5,-,N/A,,Clear,150,2014-03-05 22:15:00
4:35 PM,19.8,-4.0,35,30.40,10.0,Calm,Calm,-,N/A,,Clear,0,2014-03-05 22:35:00
4:55 PM,19.0,-4.2,36,30.39,10.0,Calm,Calm,-,N/A,,Clear,0,2014-03-05 22:55:00
5:15 PM,18.1,-5.1,36,30.40,10.0,Calm,Calm,-,N/A,,Clear,0,2014-03-05 23:15:00
5:35 PM,15.6,-5.3,39,30.39,10.0,Calm,Calm,-,N/A,,Clear,0,2014-03-05 23:35:00
5:55 PM,15.3,-6.2,38,30.40,10.0,Calm,Calm,-,N/A,,Clear,0,2014-03-05 23:55:00
6:15 PM,12.4,-6.0,44,30.40,10.0,Calm,Calm,-,N/A,,Clear,0,2014-03-06 00:15:00
6:30 PM,12.4,-6.0,44,30.40,10.0,Calm,Calm,-,N/A,,Clear,0,2014-03-06 00:30:00
6:55 PM,11.5,-6.0,46,30.40,10.0,Calm,Calm,-,N/A,,Clear,0,2014-03-06 00:55:00
7:15 PM,11.1,-5.4,47,30.39,10.0,Calm,Calm,-,N/A,,Clear,0,2014-03-06 01:15:00
7:35 PM,10.8,-4.0,52,30.39,10.0,Calm,Calm,-,N/A,,Clear,0,2014-03-06 01:35:00
7:55 PM,10.2,-3.6,54,30.38,10.0,SSE,3.5,-,N/A,,Clear,150,2014-03-06 01:55:00
8:15 PM,8.4,-4.2,57,30.39,10.0,Calm,Calm,-,N/A,,Clear,0,2014-03-06 02:15:00
8:35 PM,5.9,-4.5,62,30.38,10.0,Calm,Calm,-,N/A,,Clear,0,2014-03-06 02:35:00
8:55 PM,5.0,-4.9,64,30.39,10.0,Calm,Calm,-,N/A,,Clear,0,2014-03-06 02:55:00
9:15 PM,5.0,-5.1,63,30.38,10.0,Calm,Calm,-,N/A,,Clear,0,2014-03-06 03:15:00
9:35 PM,4.5,-6.0,62,30.38,10.0,Calm,Calm,-,N/A,,Clear,0,2014-03-06 03:35:00
9:55 PM,2.8,-6.5,65,30.38,10.0,Calm,Calm,-,N/A,,Clear,0,2014-03-06 03:55:00
10:15 PM,2.8,-7.2,63,30.38,10.0,Calm,Calm,-,N/A,,Clear,0,2014-03-06 04:15:00
10:35 PM,1.0,-7.6,67,30.38,10.0,Calm,Calm,-,N/A,,Clear,0,2014-03-06 04:35:00
10:55 PM,0.5,-8.0,68,30.38,10.0,Calm,Calm,-,N/A,,Clear,0,2014-03-06 04:55:00
11:10 PM,0.5,-7.4,69,30.38,10.0,Calm,Calm,-,N/A,,Clear,0,2014-03-06 05:10:00
11:35 PM,0.3,-8.5,66,30.37,10.0,Calm,Calm,-,N/A,,Clear,0,2014-03-06 05:35:00
11:55 PM,-0.8,-8.7,69,30.38,10.0,Calm,Calm,-,N/A,,Clear,0,2014-03-06 05:55:00